[[{"header":{"parameterUnit":"m.s-1","parameterCategory":1,"la1":30.2991,"la2":30.254,"lo1":-89.0895,"lo2":-89.0444,"dy":0.0017,"dx":0.0017,"nx":28,"ny":28,"refTime":"2025-08-31T21:00:00:Z","depth":0,"parameterNumber":2,"parameterNumberName":"U-component_of_WINDS"},"data":[0,0,0,0,0,0,0,0,0,0,0,0,0,0,0,0,0,0,0,0,0,0,0,0,0,0,0,0,0,0,0,0,0,0,0,0,0,0,0,0,0,0,0,0,0,0,0,0,0,0,0,0,0,0,0,0,0,0,-3.7895,-3.7894,0,-3.7807,-3.7806,-3.7805,-3.7675,-3.7673,-3.7671,-3.7668,-3.7578,-3.7578,-3.7578,0,0,0,0,0,0,0,0,0,0,0,0,0,-3.7953,-3.7953,-3.7896,-3.7894,-3.7893,-3.7807,-3.7806,-3.7805,-3.7676,-3.7673,-3.767,-3.7667,-3.7579,-3.7578,-3.7578,0,0,0,0,0,0,0,0,0,0,0,0,0,-3.7903,-3.7952,-3.7896,-3.7818,-3.781,-3.7808,-3.7806,-3.7805,-3.7676,-3.7673,-3.7669,-3.7666,-3.7579,-3.7578,-3.7578,-3.7644,0,0,-3.7577,-3.7576,0,0,0,0,0,0,0,0,-3.7906,-3.7901,-3.7831,-3.7824,-3.7815,-3.7749,-3.7793,-3.7751,-3.7677,-3.7727,-3.7668,-3.7664,-3.7638,-3.7632,-3.7623,-3.7639,-3.7636,-3.7577,-3.7576,-3.7576,-3.7576,0,0,0,0,0,0,0,-3.7909,-3.7904,-3.786,-3.783,-3.782,-3.7788,-3.7778,-3.7785,-3.7703,-3.7723,-3.7713,-3.7704,-3.7633,-3.7624,-3.762,-3.7634,-3.7577,-3.7576,-3.7576,-3.7576,-3.7702,-3.7705,0,0,0,0,0,0,-3.7924,-3.7908,-3.7863,-3.7858,-3.7853,-3.779,-3.7778,-3.7773,-3.7702,-3.7688,-3.7707,-3.7698,-3.7626,-3.7621,-3.7617,-3.769,-3.7576,-3.7576,-3.7576,-3.7698,-3.7703,-3.7707,0,0,0,0,0,0,-3.7926,-3.7922,-3.7867,-3.788,-3.7871,-3.7793,-3.7789,-3.7773,-3.7764,-3.7691,-3.7676,-3.7713,-3.7624,-3.7617,-3.7638,-3.7685,-3.7576,-3.7575,-3.7694,-3.77,-3.7705,-3.7838,0,0,0,0,0,0,-3.7928,-3.7923,-3.7947,-3.7882,-3.7871,-3.789,-3.7792,-3.7774,-3.7764,-3.7752,-3.7692,-3.7679,-3.762,-3.764,-3.7638,-3.7683,-3.7575,-3.769,-3.7697,-3.7703,-3.7829,-3.7847,-3.7863,0,0,0,0,0,-3.7931,-3.7988,-3.7949,-3.7944,-3.7899,-3.7893,-3.7887,-3.7818,-3.7768,-3.7792,-3.7745,-3.7681,-3.7681,-3.7643,-3.764,-3.7685,-3.7686,-3.7695,-3.7702,-3.7821,-3.7844,-3.7862,0,0,0,0,0,0,-3.806,-3.7978,-3.7934,-3.7971,-3.794,-3.7871,-3.7899,-3.7843,-3.7826,-3.7815,-3.773,-3.7718,-3.775,-3.7719,-3.7679,-3.7746,-3.7674,-3.7682,-3.7765,-3.7786,-3.7802,-3.781,-3.7575,0,0,0,0,0,-3.8093,-3.8095,-3.8023,-3.8063,-3.805,-3.7978,-3.7972,-3.7922,-3.7887,-3.7873,-3.7827,-3.7796,-3.7788,-3.7785,-3.7774,-3.7824,-3.781,-3.7854,-3.7871,-3.7885,-3.7893,-3.7919,-3.7938,-3.7733,-3.7733,-3.7733,0,0,-3.8161,-3.8116,-3.8122,-3.8088,-3.8058,-3.8063,-3.7967,-3.7976,-3.7979,-3.7874,-3.7891,-3.7857,-3.7816,-3.7853,-3.7866,-3.7828,-3.7947,-3.7895,-3.7907,-3.7907,-3.7929,-3.7949,-3.7966,-3.7739,-3.7738,-3.7737,0,0,-3.8287,-3.8253,-3.8283,-3.8256,-3.8212,-3.8164,-3.8171,-3.8111,-3.8084,-3.8101,-3.8023,-3.8025,-3.8014,-3.7989,-3.7974,-3.8093,-3.8035,-3.8092,-3.8181,-3.8207,-3.8223,-3.8237,-3.8281,-3.8298,-3.81,-3.81,-3.8101,0,-3.8377,-3.8381,-3.8306,-3.832,-3.8308,-3.8213,-3.8244,-3.8221,-3.8176,-3.817,-3.8128,-3.8113,-3.8079,-3.8109,-3.8138,-3.8129,-3.8136,-3.8099,-3.8227,-3.824,-3.8252,-3.8293,-3.8309,-3.8108,-3.8107,-3.8106,-3.8106,0,-3.8494,-3.8498,-3.8528,-3.8488,-3.8479,-3.8501,-3.843,-3.843,-3.8381,-3.8338,-3.8357,-3.8313,-3.8292,-3.8295,-3.8247,-3.8319,-3.8297,-3.8242,-3.8168,-3.828,-3.8317,-3.8332,-3.8118,-3.8116,-3.8114,-3.8112,0,0,-3.8699,-3.8618,-3.8631,-3.8612,-3.8557,-3.8559,-3.8578,-3.8558,-3.856,-3.8533,-3.8547,-3.8541,-3.849,-3.8474,-3.8422,-3.8446,-3.8545,-3.8387,-3.8385,-3.842,-3.8624,-3.8666,-3.8686,-3.8505,-3.8508,-3.851,-3.8627,0,-3.8816,-3.8843,-3.8777,-3.8821,-3.8824,-3.8736,-3.8752,-3.8721,-3.8682,-3.8679,-3.8635,-3.8633,-3.8565,-3.8556,-3.8574,-3.8529,-3.8585,-3.8519,-3.8519,-3.852,-3.8533,-3.8704,-3.8749,-3.8862,-3.8641,-3.8644,-3.8645,0,-3.8955,-3.8936,-3.898,-3.8925,-3.8924,-3.894,-3.8917,-3.8916,-3.8879,-3.8849,-3.8832,-3.8772,-3.8788,-3.8716,-3.8737,-3.8694,-3.869,-3.8668,-3.8671,-3.8669,-3.859,-3.8709,-3.8896,-3.8914,-3.8667,-3.8666,-3.8664,0,-3.9102,-3.9087,-3.9112,-3.9098,-3.9034,-3.9048,-3.9021,-3.8981,-3.8974,-3.8955,-3.8949,-3.8932,-3.8923,-3.8911,-3.8848,-3.8802,-3.8878,-3.88,-3.8854,-3.8856,-3.8874,-3.8874,-3.9066,-3.887,-3.887,-3.887,-3.887,0,-3.9239,-3.9271,-3.9177,-3.9193,-3.9226,-3.915,-3.9185,-3.9149,-3.9115,-3.9123,-3.9045,-3.9054,-3.897,-3.8971,-3.8922,-3.8948,-3.8944,-3.8921,-3.8908,-3.8928,-3.8932,-3.8925,-3.8916,-3.8874,-3.8873,-3.8872,-3.8872,0,-3.9409,-3.9348,-3.937,-3.9307,-3.9292,-3.932,-3.9266,-3.9279,-3.9235,-3.9246,-3.9244,-3.9175,-3.9172,-3.9108,-3.9091,-3.9058,-3.9104,-3.9076,-3.9117,-3.9108,-3.9166,-3.9163,-3.9361,-3.9384,-3.9174,-3.9176,-3.9178,0,-3.9502,-3.9524,-3.9464,-3.9464,-3.9442,-3.9442,-3.9435,-3.9361,-3.9357,-3.9318,-3.9336,-3.9326,-3.9315,-3.9314,-3.9263,-3.925,-3.9221,-3.9291,-3.9218,-3.924,-3.9224,-3.9224,-3.9227,-3.9307,-3.931,-3.9312,-3.9314,0,-3.9673,-3.9642,-3.9634,-3.9616,-3.961,-3.9592,-3.957,-3.9574,-3.9494,-3.9493,-3.9489,-3.948,-3.9463,-3.9455,-3.9433,-3.9407,-3.9348,-3.9337,-3.9349,-3.9371,-3.9395,-3.9385,-3.9161,-3.9333,-3.9331,-3.933,-3.9329,-3.9328,-3.9807,-3.9823,-3.9785,-3.9779,-3.9755,-3.9736,-3.9745,-3.9703,-3.9698,-3.9679,-3.9636,-3.9639,-3.9603,-3.9568,-3.9547,-3.9549,-3.9513,-3.953,-3.9534,-3.954,-3.9552,-3.9394,-3.9544,-3.9544,-3.9543,-3.9542,-3.9542,0,-3.9975,-3.9946,-3.9942,-3.9914,-3.991,-3.9855,-3.9827,-3.9828,-3.9832,-3.9804,-3.9794,-3.9791,-3.9783,-3.9732,-3.9719,-3.973,-3.9703,-3.973,-3.9729,-3.9724,-3.9584,-3.9576,-3.9752,-3.9752,-3.9752,-3.9752,-3.9752,-3.9752,-4.0063,-4.0088,-4.0053,-4.0065,-4.0036,-4.0038,-4.0028,-4.0011,-3.9988,-3.9988,-3.9981,-3.9948,-3.9911,-3.9895,-3.9886,-3.9871,-3.987,-3.9906,-3.9883,-3.9754,-3.9733,-3.9714,-3.9706,-3.9906,-3.9907,-4.0022,-4.0023,-4.0024]},{"header":{"parameterUnit":"m.s-1","parameterCategory":1,"la1":30.2991,"la2":30.254,"lo1":-89.0895,"lo2":-89.0444,"dy":0.0017,"dx":0.0017,"nx":28,"ny":28,"refTime":"2025-08-31T21:00:00:Z","depth":0,"parameterNumber":3,"parameterNumberName":"V-component_of_WINDS"},"data":[0,0,0,0,0,0,0,0,0,0,0,0,0,0,0,0,0,0,0,0,0,0,0,0,0,0,0,0,0,0,0,0,0,0,0,0,0,0,0,0,0,0,0,0,0,0,0,0,0,0,0,0,0,0,0,0,0,0,0.4678,0.4679,0,0.4691,0.4692,0.4692,0.4736,0.4737,0.4738,0.4739,0.4749,0.4749,0.4748,0,0,0,0,0,0,0,0,0,0,0,0,0,0.469,0.469,0.4678,0.4679,0.4679,0.4691,0.4692,0.4692,0.4736,0.4737,0.4738,0.4739,0.475,0.4749,0.4748,0,0,0,0,0,0,0,0,0,0,0,0,0,0.4692,0.4689,0.4678,0.4702,0.4705,0.4691,0.4692,0.4692,0.4735,0.4737,0.4738,0.474,0.475,0.4749,0.4748,0.4712,0,0,0.4745,0.4745,0,0,0,0,0,0,0,0,0.4692,0.4692,0.4699,0.4701,0.4703,0.4714,0.47,0.4698,0.4735,0.4724,0.4739,0.4741,0.4736,0.4736,0.4735,0.4712,0.4713,0.4745,0.4744,0.4744,0.4744,0,0,0,0,0,0,0,0.4692,0.4691,0.4684,0.4699,0.4701,0.4712,0.4714,0.4699,0.4721,0.4725,0.4728,0.4729,0.4738,0.4736,0.4736,0.4713,0.4745,0.4744,0.4743,0.4743,0.466,0.4659,0,0,0,0,0,0,0.4688,0.4691,0.4683,0.4684,0.4701,0.471,0.4713,0.4709,0.4721,0.4725,0.4728,0.4731,0.4737,0.4737,0.4736,0.4694,0.4744,0.4743,0.4742,0.4662,0.466,0.4658,0,0,0,0,0,0,0.4689,0.4687,0.4683,0.4688,0.4689,0.4709,0.4704,0.4708,0.4707,0.4724,0.4728,0.4722,0.4738,0.4738,0.4718,0.4695,0.4742,0.4742,0.4664,0.4661,0.4659,0.4609,0,0,0,0,0,0,0.4689,0.4687,0.4674,0.4688,0.4688,0.4664,0.4703,0.4707,0.4705,0.471,0.472,0.4723,0.4739,0.4719,0.4717,0.4695,0.4741,0.4666,0.4663,0.466,0.4613,0.4606,0.4599,0,0,0,0,0,0.4689,0.4659,0.4673,0.4672,0.4672,0.4662,0.4663,0.4683,0.4703,0.469,0.4701,0.4723,0.4699,0.4716,0.4714,0.4692,0.4667,0.4664,0.466,0.4616,0.4607,0.4599,0,0,0,0,0,0,0.4641,0.4661,0.4677,0.4651,0.4655,0.467,0.4653,0.4673,0.467,0.4674,0.4699,0.4701,0.4677,0.4683,0.4702,0.4657,0.4687,0.4682,0.4654,0.4645,0.4639,0.4637,0.474,0,0,0,0,0,0.4627,0.4619,0.4637,0.4612,0.4613,0.4633,0.4629,0.4645,0.465,0.4651,0.4661,0.4664,0.4657,0.4652,0.4647,0.4615,0.4617,0.4598,0.4592,0.4586,0.4581,0.4564,0.4555,0.4646,0.4646,0.4646,0,0,0.4599,0.4609,0.4601,0.4602,0.4607,0.4597,0.4634,0.4621,0.4613,0.4649,0.463,0.4638,0.4643,0.4617,0.4606,0.4621,0.4557,0.4581,0.4576,0.4575,0.4559,0.4551,0.4543,0.4644,0.4644,0.4645,0,0,0.4541,0.4548,0.4528,0.4533,0.454,0.4554,0.4549,0.4562,0.4568,0.455,0.4577,0.4568,0.4556,0.4558,0.4558,0.4502,0.4522,0.45,0.4463,0.4446,0.4438,0.4432,0.4411,0.4403,0.4496,0.4496,0.4496,0,0.4504,0.449,0.4515,0.4501,0.45,0.4533,0.4512,0.4515,0.452,0.4518,0.4536,0.4522,0.4527,0.4502,0.4488,0.4488,0.4482,0.4498,0.4438,0.4432,0.4426,0.4406,0.4398,0.4493,0.4493,0.4494,0.4494,0,0.4444,0.4434,0.4417,0.4421,0.4419,0.4401,0.4423,0.4417,0.4433,0.4445,0.4426,0.4435,0.4432,0.4427,0.4443,0.4403,0.4412,0.4434,0.4463,0.4414,0.4396,0.4388,0.4489,0.449,0.4491,0.4492,0,0,0.4354,0.4374,0.4367,0.4369,0.4381,0.4373,0.4357,0.4355,0.4349,0.4352,0.4338,0.4328,0.4348,0.4347,0.4363,0.4349,0.4303,0.4372,0.4372,0.4357,0.4259,0.4241,0.4232,0.4317,0.4316,0.4315,0.4258,0,0.4298,0.4272,0.4294,0.4264,0.4254,0.4287,0.4273,0.4278,0.4289,0.4282,0.4294,0.4285,0.4313,0.4313,0.43,0.4311,0.4283,0.4316,0.4303,0.4302,0.4298,0.4223,0.4204,0.415,0.4251,0.425,0.4249,0,0.4228,0.4229,0.4197,0.4211,0.4208,0.4195,0.4195,0.4188,0.4195,0.4204,0.4204,0.4224,0.4209,0.424,0.4218,0.424,0.4236,0.4241,0.424,0.4237,0.4271,0.4216,0.4133,0.4124,0.4238,0.4239,0.424,0,0.4163,0.4156,0.4137,0.4138,0.4154,0.4144,0.415,0.4158,0.4156,0.4156,0.4154,0.4152,0.415,0.4148,0.4167,0.4188,0.4142,0.4175,0.4148,0.4147,0.4135,0.4135,0.4048,0.4136,0.4136,0.4136,0.4136,0,0.4097,0.4076,0.4108,0.4095,0.4073,0.4099,0.4076,0.4085,0.4093,0.4082,0.4111,0.41,0.4127,0.4119,0.4134,0.4113,0.4113,0.4118,0.4122,0.4115,0.4114,0.4111,0.4114,0.4134,0.4135,0.4135,0.4135,0,0.402,0.404,0.4021,0.4038,0.4042,0.4024,0.4039,0.4028,0.4042,0.4028,0.4026,0.4047,0.4039,0.4059,0.4053,0.4064,0.4033,0.4044,0.4031,0.4033,0.4004,0.4006,0.3911,0.3899,0.3996,0.3995,0.3995,0,0.3975,0.396,0.3976,0.3971,0.3976,0.3968,0.3966,0.3992,0.3988,0.3995,0.3982,0.3977,0.3974,0.396,0.3974,0.397,0.398,0.3947,0.3979,0.3972,0.3977,0.3977,0.3975,0.3939,0.3938,0.3937,0.3936,0,0.3892,0.3904,0.39,0.39,0.3896,0.3897,0.39,0.3894,0.3922,0.3916,0.3909,0.3907,0.3902,0.3896,0.3896,0.3901,0.3922,0.3927,0.392,0.3911,0.3903,0.3905,0.401,0.3928,0.3929,0.3929,0.393,0.393,0.3829,0.3817,0.3826,0.3821,0.3826,0.3828,0.3818,0.3832,0.3826,0.3825,0.3841,0.383,0.3837,0.3839,0.3842,0.3834,0.3848,0.3839,0.3836,0.3833,0.3827,0.3906,0.3834,0.3834,0.3834,0.3835,0.3835,0,0.3746,0.3755,0.375,0.3753,0.3749,0.3772,0.3776,0.3771,0.3761,0.3767,0.3763,0.3755,0.3749,0.3764,0.376,0.3751,0.376,0.3749,0.3748,0.3749,0.3815,0.382,0.3741,0.3741,0.3741,0.3741,0.3741,0.3741,0.3703,0.3683,0.3696,0.3679,0.3687,0.3678,0.3678,0.368,0.3684,0.3674,0.367,0.368,0.3689,0.3686,0.3682,0.3686,0.3683,0.3667,0.3675,0.3735,0.3744,0.3753,0.3758,0.3667,0.3667,0.3609,0.3609,0.3608]}]]